SJ-21 AKM, 49382

Orbit data source: Space-Track

SJ-21 AKM, 49382 is space debris in GEO originally from a launch on Sun, 24 Oct 2021 UTC via a CHANG ZHENG 3B launch vehicle from the Xichang Space Center, China (XSC). Debris objects in space refer to the collection of defunct objects orbiting the Earth. Examples of debris include non-operational satellites, rocket bodies, and fragments generated from explosions, collisions, or faulty payload assembly.

Loading next visibility...
Identifier
49382, 2021-094C
Orbit
GEO
Country
Flag of CNCN / PRC
Related business
Manufacturer
SAST?
Mission
Defense Technology
Bus & Motor
SJ21, Unknown motor
Mass
~200 kg wet, ~200 kg dry
Launch date (UTC)
2021-10-24 (5 years ago)
Launch vehicle
CHANG ZHENG 3B
Launch site
Xichang Space Center, China (XSC)
Object type
Payload
Rocket body
Debris
Shape & HBR
Box, 0.5 m
Radar Cross Section
1.500 m², Large (>1 m²)

Expand to show TLE details & history
Last TLE update: 11 hours ago

TLE from 11 hours ago
0 SJ-21 AKM
1 49382U 21094C   26166.96576727 -.00000268  00000-0  00000+0 0  9998
2 49382  11.2811  39.7461 0002199 161.4535  19.7479  0.99219211 17478
Epoch: 2026-06-15T23:10Z
TLE epoch observation values (Epoch: 2026-06-15T23:10:42.292Z)
Latitude
-0.24809°
Longitude
-30.97307°
Altitude
36,075.074 km
Speed
3.065 km/s
True Right ascension
14h 43m 47s
True Declination
0° 14' 52"
Sunlit
Object was in daylight at epoch
Visualization orbit readout
Latitude
Unknown
Longitude
Unknown
Altitude
Unknown
Speed
Unknown
Apparent Right ascension
Unknown
Apparent Declination
Unknown
Sunlit
N/A
Visualization observer readout
Local Sidereal Time
20:19:21
Azimuth
Unknown
Elevation
Unknown
Doppler factor
Unknown
Orbital elements
Apogee altitude
36,094.617 km
Perigee altitude
36,075.941 km
Semi-major axis
42,463.416 km
Eccentricity
0.00022
Inclination
11.2811°
RAAN
39.7461°
Arg. of periapsis
161.4535°
True anomaly
19.75642°
Mean anomaly
19.7479°
Eccentric anomaly
19.75216°
Mean motion
0.24804 °/min
Orbital period
1,451.38 mins
BSTAR
0
Loading maneuver chart data...
Computing Atmospheric mass density...
Loading historical data...
Loading historical data...
Loading historical data...
Loading historical data...
Loading historical data...
Loading historical data...
Loading historical data...
Other satellites on launch #94 in the year 2021 (2021-10-24 UTC)

Documentation

Showing up to 5 results
|